Location: Olomouc
(49.5830°N, 17.2500°E)
Time: 05:23:32
(UTC+01:00)

ISS - Pass Details

Date: 01 November 2021
Orbit: 417 x 423 km, 51.6° (Epoch: 01 December)

Event Time Altitude Azimuth Distance (km) Brightness Sun altitude
Exits shadow 04:35:59 58° 8° (N) 495 -3.5 -20.4°
Drops below altitude 10° 04:39:13 10° 78° (ENE) 1,502 0.2 -19.9°
Sets 04:41:20 0° 82° (E) 2,365 1.7 -19.6°
